Regional Weather Roundup
Issued by NWS Goodland, KS

Home | Current Version | Previous Version | Text Only | Print | Product List | Glossary Off
Versions: 1 2 3 4 5 6 7 8 9 10 11 12 13 14 15 16 17 18 19 20 21 22 23 24 25 26 27 28 29 30 31 32 33 34 35 36 37 38 39 40 41 42 43 44 45 46 47 48 49 50

000
ASUS43 KGLD 242008
RWRGLD

GOODLAND FORECAST AREA HOURLY WEATHER ROUNDUP
NATIONAL WEATHER SERVICE GOODLAND KS
100 PM MST WED DEC 24 2014

...OFFICIAL OBSERVATIONS...

CITY           SKY/WX    TMP DP  RH WIND       PRES   REMARKS
GOODLAND KS    SUNNY     39  20  46 SW21      29.75F
HILL CITY KS   SUNNY     42  20  41 W13       29.81F
IMPERIAL NEB   SUNNY     40  21  46 SW12      29.71F
MCCOOK NEB     SUNNY     41  18  39 SW10      29.76F
AKRON CO       SUNNY     41  19  41 SW10      29.69F
BURLINGTON CO  SUNNY     38  16  40 SW18      29.75F
LIMON CO       SUNNY     41  13  31 S12       29.74F
$$

...UNOFFICIAL OBSERVATIONS...

CITY           SKY/WX    TMP DP  RH WIND       PRES   REMARKS
COLBY KS       SUNNY     43  25  49 SW13      29.77F
GOVE KS          N/A     44  32  63 MISG        N/A
NORTON KS      SUNNY     39  19  45 SW10      29.77F
SHARON SPRINGS   N/A     42  20  41 SW15G22     N/A
TRIBUNE KS     SUNNY     45  19  36 SW18      29.82F
KIT CARSON CO    N/A     40  13  32 MISG        N/A
YUMA CO          N/A     42  22  45 SW12        N/A
$$


USA.gov is the U.S. government's official web portal to all federal, state and local government web resources and services.